星链-31033 (STARLINK-31033 )

导读

STARLINK-31033是美国SpaceX公司星链星座的一颗第二代卫星,于2024年1月3日由猎鹰九号运载火箭从加州范登堡太空军基地发射,成功送入近地轨道。作为第二代星链卫星,它相比初代拥有更高带宽与可靠性,单星发射质量约790千克,服务于全球卫星互联网组网,此次发射也是2024年美国首次航天发射任务。

Basic Information
目录编号:
58723
目录名称:
STARLINK-31033
国际标识:
2024-002U
轨道中心:
EARTH
卫星名称:
星链-31033
卫星全名:
星链-31033 (STARLINK-31033 )
卫星状态:
在轨 (已飞行976 天)
发射日期:
2024-01-03 UTC
国别 :
美国 (US)
星等 :
--
Orbit Information
数据来源 国际轨道数据
星历时间: 2026-09-05T08:02:51+0800
18小时前
查看轨道信息
半长轴: 6840.845km
偏心率: 0.0001122
轨道倾角: 53.161°
近地点辐角 91.012°
升交点赤经 115.996°
平近点角 269.101°
近地点: 461.94km
远地点: 463.476km
周期: 93.848分钟
每日圈数: 15.343987
Detailed Information
固有亮度:
5
最大亮度:
0.3
卫星平台:
Starlink v2.0 mini
覆盖范围:
全球
运营商:
太空探索技术公司
运营商所在国:
美国
制造商(研发单位):
太空探索技术公司
制造商所在国:
美国
使用方式:
暂无
Satellite Introduction
星链(Starlink)计划是由太空探索技术公司(SpaceX)提出的一个巨型低轨卫星互联网星座项目,计划在2019年至2024年间在太空搭建由约1.2万颗卫星组成的“星链”网络,其中1584颗将部署在地球上空550千米处的近地轨道,并从2020年开始工作。该卫星仍在工作。
2D Orbit Map
3D Orbit Map
Orbit Altitude Analysis Chart
Orbit Inclination Analysis Chart
Orbit Comprehensive Analysis Chart
View Comprehensive Chart
Conjunction Data List
Event ID Objects TCA Miss Dist (km) Collision Risk Probability Collision Risk Index (CRI) Action
CDM_260907-220605-872306-563321
2026-09-07T
22:06:31+0000
0.626 km
远距离
7.446141E-5 中风险 0.72